| time (UTC) | temp F | wind direction | speed MPH | gust MPH | rain 1hr in | rain 24hr in | rain mn in | humidity % | barometer mb |
| 20260508200330 | 50 | 205 | 12.0 | 26.0 | 0.00 | 0.02 | 0.00 | 57 | 1009.7 |
| 20260508195343 | 50 | 207 | 11.0 | 17.0 | 0.00 | 0.02 | 0.00 | 56 | 1009.7 |
| 20260508194333 | 51 | 207 | 5.0 | 15.0 | 0.00 | 0.02 | 0.00 | 56 | 1009.7 |
| 20260508193343 | 51 | 192 | 9.0 | 18.0 | 0.00 | 0.02 | 0.00 | 54 | 1009.7 |
| 20260508192333 | 51 | 200 | 9.0 | 16.0 | 0.00 | 0.02 | 0.00 | 54 | 1009.7 |
| 20260508191324 | 51 | 167 | 7.0 | 16.0 | 0.00 | 0.02 | 0.00 | 54 | 1009.7 |
| 20260508190331 | 51 | 217 | 6.0 | 16.0 | 0.00 | 0.02 | 0.00 | 53 | 1009.6 |
| 20260508185341 | 51 | 120 | 7.0 | 16.0 | 0.00 | 0.02 | 0.00 | 51 | 1009.3 |
| 20260508184334 | 51 | 178 | 9.0 | 20.0 | 0.00 | 0.02 | 0.00 | 50 | 1009.2 |
| 20260508183343 | 51 | 149 | 12.0 | 20.0 | 0.00 | 0.02 | 0.00 | 50 | 1009.4 |
| 20260508182334 | 51 | 219 | 6.0 | 20.0 | 0.00 | 0.02 | 0.00 | 49 | 1009.3 |
| 20260508181343 | 51 | 173 | 9.0 | 18.0 | 0.00 | 0.02 | 0.00 | 49 | 1009.3 |
| 20260508180337 | 51 | 166 | 6.0 | 13.0 | 0.00 | 0.02 | 0.00 | 49 | 1009.1 |
| 20260508175324 | 51 | 218 | 11.0 | 18.0 | 0.00 | 0.02 | 0.00 | 48 | 1008.8 |
| 20260508174333 | 51 | 192 | 7.0 | 16.0 | 0.00 | 0.02 | 0.00 | 48 | 1009.1 |
| 20260508173343 | 51 | 225 | 8.0 | 16.0 | 0.00 | 0.02 | 0.00 | 46 | 1008.9 |
| 20260508172336 | 52 | 199 | 7.0 | 17.0 | 0.00 | 0.02 | 0.00 | 46 | 1008.9 |
| 20260508171326 | 53 | 229 | 9.0 | 17.0 | 0.00 | 0.02 | 0.00 | 46 | 1008.9 |
| 20260508170335 | 52 | 264 | 5.0 | 17.0 | 0.00 | 0.02 | 0.00 | 47 | 1009.0 |
| 20260508165327 | 52 | 184 | 7.0 | 23.0 | 0.00 | 0.02 | 0.00 | 45 | 1008.9 |
| 20260508164335 | 52 | 257 | 12.0 | 21.0 | 0.00 | 0.02 | 0.00 | 44 | 1008.9 |
| 20260508163325 | 52 | 228 | 8.0 | 22.0 | 0.00 | 0.02 | 0.00 | 44 | 1008.7 |
| 20260508162335 | 52 | 229 | 13.0 | 22.0 | 0.00 | 0.02 | 0.00 | 44 | 1008.9 |
| 20260508161328 | 52 | 277 | 9.0 | 17.0 | 0.00 | 0.02 | 0.00 | 44 | 1009.2 |
| 20260508160339 | 52 | 292 | 12.0 | 19.0 | 0.00 | 0.02 | 0.00 | 42 | 1009.0 |
| 20260508155328 | 52 | 213 | 10.0 | 18.0 | 0.00 | 0.02 | 0.00 | 42 | 1009.0 |
| 20260508154335 | 52 | 223 | 8.0 | 18.0 | 0.00 | 0.02 | 0.00 | 42 | 1009.3 |
| 20260508153327 | 52 | 221 | 7.0 | 18.0 | 0.00 | 0.02 | 0.00 | 43 | 1009.4 |
| 20260508152335 | 52 | 235 | 6.0 | 17.0 | 0.00 | 0.02 | 0.00 | 42 | 1009.4 |
| 20260508151324 | 53 | 221 | 8.0 | 16.0 | 0.00 | 0.02 | 0.00 | 41 | 1009.4 |
| 20260508150332 | 53 | 209 | 7.0 | 14.0 | 0.00 | 0.02 | 0.00 | 39 | 1009.6 |
| 20260508145342 | 53 | 237 | 7.0 | 19.0 | 0.00 | 0.02 | 0.02 | 40 | 1009.7 |
| 20260508144330 | 53 | 194 | 9.0 | 16.0 | 0.00 | 0.02 | 0.02 | 40 | 1009.6 |
| 20260508143338 | 53 | 200 | 3.0 | 12.0 | 0.00 | 0.02 | 0.02 | 41 | 1009.8 |
| 20260508142332 | 54 | 263 | 4.0 | 13.0 | 0.00 | 0.02 | 0.02 | 45 | 1009.6 |
| 20260508141339 | 54 | 267 | 6.0 | 17.0 | 0.00 | 0.02 | 0.02 | 47 | 1009.2 |
| 20260508140329 | 55 | 254 | 8.0 | 18.0 | 0.00 | 0.02 | 0.02 | 50 | 1009.1 |
| 20260508135336 | 56 | 269 | 12.0 | 27.0 | 0.00 | 0.02 | 0.02 | 53 | 1008.9 |
| 20260508134329 | 56 | 288 | 10.0 | 21.0 | 0.00 | 0.02 | 0.02 | 56 | 1008.5 |
| 20260508133338 | 57 | 294 | 8.0 | 20.0 | 0.00 | 0.02 | 0.02 | 57 | 1008.3 |
| 20260508132328 | 57 | 78 | 13.0 | 20.0 | 0.00 | 0.02 | 0.02 | 58 | 1007.8 |
| 20260508131338 | 57 | 9 | 5.0 | 14.0 | 0.00 | 0.02 | 0.02 | 59 | 1007.9 |
| 20260508130332 | 57 | 10 | 3.0 | 17.0 | 0.00 | 0.02 | 0.02 | 59 | 1007.8 |
| 20260508125341 | 57 | 265 | 7.0 | 22.0 | 0.00 | 0.02 | 0.02 | 60 | 1008.1 |
| 20260508124328 | 57 | 282 | 8.0 | 20.0 | 0.00 | 0.02 | 0.02 | 63 | 1007.8 |
| 20260508123337 | 58 | 318 | 13.0 | 20.0 | 0.00 | 0.02 | 0.02 | 62 | 1007.4 |
| 20260508122329 | 58 | 321 | 7.0 | 18.0 | 0.00 | 0.02 | 0.02 | 64 | 1007.4 |
| 20260508121338 | 59 | 245 | 10.0 | 24.0 | 0.00 | 0.02 | 0.02 | 64 | 1007.1 |
| 20260508120327 | 60 | 277 | 12.0 | 17.0 | 0.00 | 0.02 | 0.02 | 62 | 1007.1 |
| 20260508115338 | 60 | 278 | 7.0 | 12.0 | 0.00 | 0.02 | 0.02 | 60 | 1006.5 |
| 20260508114328 | 61 | 299 | 10.0 | 17.0 | 0.00 | 0.02 | 0.02 | 61 | 1006.6 |
| 20260508113337 | 61 | 285 | 5.0 | 12.0 | 0.00 | 0.02 | 0.02 | 61 | 1006.7 |
| 20260508112327 | 62 | 286 | 7.0 | 13.0 | 0.00 | 0.02 | 0.02 | 61 | 1006.4 |
| 20260508111340 | 62 | 296 | 3.0 | 10.0 | 0.00 | 0.02 | 0.02 | 61 | 1006.3 |
| 20260508110329 | 62 | 215 | 4.0 | 15.0 | 0.00 | 0.02 | 0.02 | 62 | 1006.1 |
| 20260508105339 | 62 | 221 | 3.0 | 11.0 | 0.00 | 0.02 | 0.02 | 63 | 1005.9 |
| 20260508104327 | 63 | 213 | 3.0 | 20.0 | 0.00 | 0.02 | 0.02 | 62 | 1005.6 |
| 20260508103338 | 62 | 224 | 8.0 | 11.0 | 0.00 | 0.02 | 0.02 | 63 | 1005.2 |
| 20260508102327 | 63 | 253 | 4.0 | 13.0 | 0.00 | 0.02 | 0.02 | 67 | 1005.0 |
| 20260508101334 | 63 | 246 | 6.0 | 11.0 | 0.00 | 0.02 | 0.02 | 67 | 1004.8 |
| 20260508100327 | 63 | 235 | 5.0 | 10.0 | 0.01 | 0.02 | 0.02 | 69 | 1005.4 |
| 20260508095335 | 63 | 203 | 4.0 | 11.0 | 0.01 | 0.02 | 0.02 | 70 | 1005.4 |
| 20260508094342 | 62 | 187 | 6.0 | 13.0 | 0.01 | 0.02 | 0.02 | 70 | 1005.3 |
| 20260508093330 | 63 | 199 | 8.0 | 20.0 | 0.01 | 0.02 | 0.02 | 70 | 1005.5 |
| 20260508092341 | 63 | 222 | 6.0 | 12.0 | 0.01 | 0.02 | 0.02 | 73 | 1005.5 |
| 20260508091330 | 63 | 285 | 4.0 | 7.0 | 0.01 | 0.02 | 0.02 | 73 | 1005.1 |
| 20260508090339 | 64 | 206 | 6.0 | 16.0 | 0.00 | 0.01 | 0.01 | 70 | 1005.0 |
| 20260508085328 | 65 | 226 | 6.0 | 20.0 | 0.00 | 0.01 | 0.01 | 65 | 1004.7 |
| 20260508084342 | 67 | 211 | 11.0 | 25.0 | 0.00 | 0.01 | 0.01 | 63 | 1004.5 |
| 20260508083330 | 66 | 200 | 10.0 | 17.0 | 0.00 | 0.01 | 0.01 | 65 | 1004.0 |
| 20260508082339 | 66 | 309 | 2.0 | 6.0 | 0.00 | 0.01 | 0.01 | 73 | 1004.0 |
| 20260508081328 | 66 | 283 | 2.0 | 7.0 | 0.00 | 0.01 | 0.01 | 71 | 1004.2 |
| 20260508080341 | 66 | 226 | 1.0 | 5.0 | 0.01 | 0.01 | 0.01 | 73 | 1004.2 |
| 20260508075331 | 65 | 267 | 1.0 | 5.0 | 0.01 | 0.01 | 0.01 | 74 | 1004.3 |
| 20260508074340 | 64 | 246 | 3.0 | 5.0 | 0.01 | 0.01 | 0.01 | 72 | 1004.5 |
| 20260508073333 | 65 | 275 | 2.0 | 10.0 | 0.01 | 0.01 | 0.01 | 71 | 1004.6 |
| 20260508072341 | 67 | 250 | 3.0 | 10.0 | 0.01 | 0.01 | 0.01 | 66 | 1004.9 |
| 20260508071329 | 68 | 216 | 5.0 | 21.0 | 0.01 | 0.01 | 0.01 | 63 | 1004.8 |
| 20260508070338 | 70 | 145 | 8.0 | 15.0 | 0.00 | 0.00 | 0.00 | 54 | 1004.6 |
| 20260508065331 | 71 | 192 | 10.0 | 20.0 | 0.00 | 0.00 | 0.00 | 49 | 1004.5 |
| 20260508064339 | 71 | 205 | 12.0 | 20.0 | 0.00 | 0.00 | 0.00 | 49 | 1004.4 |
| 20260508063327 | 71 | 211 | 6.0 | 23.0 | 0.00 | 0.00 | 0.00 | 50 | 1004.2 |
| 20260508062337 | 71 | 232 | 12.0 | 24.0 | 0.00 | 0.00 | 0.00 | 49 | 1004.3 |
| 20260508061328 | 72 | 213 | 12.0 | 23.0 | 0.00 | 0.00 | 0.00 | 50 | 1004.1 |
| 20260508060338 | 72 | 222 | 11.0 | 25.0 | 0.00 | 0.00 | 0.00 | 49 | 1004.2 |
| 20260508055328 | 72 | 232 | 7.0 | 23.0 | 0.00 | 0.00 | 0.00 | 46 | 1004.0 |
| 20260508054338 | 72 | 219 | 14.0 | 26.0 | 0.00 | 0.00 | 0.00 | 45 | 1003.9 |
| 20260508053330 | 72 | 162 | 9.0 | 24.0 | 0.00 | 0.00 | 0.00 | 47 | 1003.7 |
| 20260508052340 | 72 | 142 | 11.0 | 22.0 | 0.00 | 0.00 | 0.00 | 49 | 1004.3 |
| 20260508051328 | 72 | 209 | 11.0 | 24.0 | 0.00 | 0.00 | 0.00 | 52 | 1004.9 |
| 20260508050339 | 72 | 193 | 10.0 | 21.0 | 0.00 | 0.00 | 0.00 | 53 | 1005.1 |
| 20260508045330 | 73 | 171 | 9.0 | 20.0 | 0.00 | 0.00 | 0.00 | 54 | 1005.0 |
| 20260508044339 | 73 | 232 | 7.0 | 24.0 | 0.00 | 0.00 | 0.00 | 55 | 1005.3 |
| 20260508043327 | 72 | 172 | 11.0 | 23.0 | 0.00 | 0.00 | 0.00 | 55 | 1005.1 |
| 20260508042340 | 73 | 146 | 11.0 | 18.0 | 0.00 | 0.00 | 0.00 | 55 | 1005.3 |
| 20260508041330 | 73 | 180 | 7.0 | 21.0 | 0.00 | 0.00 | 0.00 | 55 | 1005.4 |
| 20260508040339 | 73 | 214 | 10.0 | 21.0 | 0.00 | 0.00 | 0.00 | 54 | 1005.3 |
| 20260508035328 | 73 | 195 | 14.0 | 25.0 | 0.00 | 0.00 | 0.00 | 54 | 1005.3 |
| 20260508034342 | 73 | 130 | 13.0 | 23.0 | 0.00 | 0.00 | 0.00 | 55 | 1005.5 |
| 20260508033332 | 73 | 177 | 10.0 | 21.0 | 0.00 | 0.00 | 0.00 | 54 | 1005.5 |
| 20260508032342 | 73 | 226 | 10.0 | 21.0 | 0.00 | 0.00 | 0.00 | 53 | 1005.7 |
| 20260508031334 | 73 | 190 | 11.0 | 20.0 | 0.00 | 0.00 | 0.00 | 54 | 1005.8 |
| 20260508030344 | 73 | 221 | 10.0 | 15.0 | 0.00 | 0.00 | 0.00 | 55 | 1005.8 |
| 20260508025333 | 73 | 186 | 6.0 | 16.0 | 0.00 | 0.00 | 0.00 | 57 | 1005.8 |
| 20260508024342 | 72 | 165 | 9.0 | 17.0 | 0.00 | 0.00 | 0.00 | 57 | 1005.9 |
| 20260508023334 | 72 | 165 | 8.0 | 16.0 | 0.00 | 0.00 | 0.00 | 57 | 1006.2 |
| 20260508022343 | 72 | 162 | 9.0 | 24.0 | 0.00 | 0.00 | 0.00 | 59 | 1006.4 |
| 20260508021331 | 72 | 202 | 10.0 | 23.0 | 0.00 | 0.00 | 0.00 | 58 | 1006.6 |
| 20260508020339 | 72 | 195 | 9.0 | 19.0 | 0.00 | 0.00 | 0.00 | 58 | 1006.5 |
| 20260508015330 | 72 | 241 | 11.0 | 23.0 | 0.00 | 0.00 | 0.00 | 58 | 1006.8 |
| 20260508014339 | 72 | 240 | 15.0 | 23.0 | 0.00 | 0.00 | 0.00 | 59 | 1007.1 |
| 20260508013327 | 72 | 209 | 10.0 | 21.0 | 0.00 | 0.00 | 0.00 | 64 | 1007.1 |
| 20260508012337 | 71 | 149 | 8.0 | 18.0 | 0.00 | 0.00 | 0.00 | 66 | 1007.0 |
| 20260508011331 | 69 | 220 | 9.0 | 17.0 | 0.00 | 0.00 | 0.00 | 68 | 1007.5 |
| 20260508010338 | 69 | 200 | 7.0 | 18.0 | 0.00 | 0.00 | 0.00 | 67 | 1007.5 |
| 20260508005325 | 68 | 146 | 7.0 | 18.0 | 0.00 | 0.00 | 0.00 | 70 | 1007.8 |
| 20260508004339 | 68 | 148 | 11.0 | 17.0 | 0.00 | 0.00 | 0.00 | 70 | 1007.8 |
| 20260508003328 | 67 | 184 | 10.0 | 20.0 | 0.00 | 0.00 | 0.00 | 71 | 1008.1 |
| 20260508002337 | 67 | 194 | 7.0 | 17.0 | 0.00 | 0.00 | 0.00 | 70 | 1008.1 |
| 20260508001326 | 67 | 219 | 11.0 | 19.0 | 0.00 | 0.00 | 0.00 | 68 | 1008.0 |
| 20260508000342 | 67 | 165 | 7.0 | 17.0 | 0.00 | 0.00 | 0.00 | 71 | 1007.9 |
| 20260507235328 | 66 | 205 | 8.0 | 13.0 | 0.00 | 0.00 | 0.00 | 72 | 1008.4 |
| 20260507234338 | 66 | 124 | 10.0 | 15.0 | 0.00 | 0.00 | 0.00 | 72 | 1008.6 |
| 20260507233326 | 65 | 178 | 5.0 | 17.0 | 0.00 | 0.00 | 0.00 | 75 | 1008.3 |
| 20260507232339 | 66 | 180 | 5.0 | 15.0 | 0.00 | 0.00 | 0.00 | 75 | 1009.0 |
| 20260507231328 | 66 | 192 | 9.0 | 18.0 | 0.00 | 0.00 | 0.00 | 71 | 1009.1 |
| 20260507230337 | 66 | 188 | 7.0 | 16.0 | 0.00 | 0.00 | 0.00 | 72 | 1008.9 |
| 20260507225329 | 66 | 162 | 8.0 | 18.0 | 0.00 | 0.00 | 0.00 | 70 | 1008.9 |
| 20260507224338 | 66 | 166 | 6.0 | 14.0 | 0.00 | 0.00 | 0.00 | 71 | 1008.9 |
| 20260507223326 | 66 | 155 | 7.0 | 14.0 | 0.00 | 0.00 | 0.00 | 70 | 1008.8 |
| 20260507222334 | 66 | 151 | 7.0 | 17.0 | 0.00 | 0.00 | 0.00 | 70 | 1008.9 |
| 20260507221326 | 66 | 174 | 7.0 | 14.0 | 0.00 | 0.00 | 0.00 | 70 | 1009.0 |
| 20260507220335 | 66 | 191 | 5.0 | 16.0 | 0.00 | 0.00 | 0.00 | 69 | 1009.1 |
| 20260507215344 | 66 | 215 | 6.0 | 14.0 | 0.00 | 0.00 | 0.00 | 69 | 1009.0 |
| 20260507214334 | 66 | 168 | 5.0 | 15.0 | 0.00 | 0.00 | 0.00 | 69 | 1009.1 |
| 20260507213327 | 66 | 161 | 7.0 | 14.0 | 0.00 | 0.00 | 0.00 | 69 | 1008.9 |
| 20260507212338 | 66 | 192 | 6.0 | 13.0 | 0.00 | 0.00 | 0.00 | 68 | 1009.1 |
| 20260507211325 | 66 | 148 | 7.0 | 14.0 | 0.00 | 0.00 | 0.00 | 68 | 1009.1 |
| 20260507210335 | 66 | 144 | 6.0 | 12.0 | 0.00 | 0.00 | 0.00 | 67 | 1009.2 |
| 20260507205326 | 66 | 160 | 3.0 | 7.0 | 0.00 | 0.00 | 0.00 | 67 | 1009.3 |
| 20260507204336 | 66 | 136 | 4.0 | 11.0 | 0.00 | 0.00 | 0.00 | 67 | 1009.3 |
| 20260507203344 | 66 | 152 | 6.0 | 11.0 | 0.00 | 0.00 | 0.00 | 67 | 1009.3 |
| 20260507202338 | 66 | 198 | 5.0 | 12.0 | 0.00 | 0.00 | 0.00 | 67 | 1009.4 |
| 20260507201327 | 64 | 198 | 6.0 | 13.0 | 0.00 | 0.00 | 0.00 | 70 | 1009.3 |